Simultaneous Nadir Overpasses (SNOs) Predictions

Prediction of SNOs between LANDSAT-8 and METOP-B Satellite Orbit:

Table of predicted SNOs for the next 14.0 days since TLE Epoch: 7/2/2022
Index Date (LANDSAT-8) Time (LANDSAT-8) Lat,Lon (LANDSAT-8) SZA (LANDSAT-8 ) Date (METOP-B) Time (METOP-B) Lat,Lon (METOP-B) SZA (METOP-B ) Distance(km) Time Diff (sec)
1 07/02/2022 07:25:27 -81.16, -70.76 119.75 07/02/2022 07:24:18 -81.16, -70.58 119.76 3.17 69
2 07/02/2022 08:14:53 81.16, 97.00 60.28 07/02/2022 08:14:58 81.16, 96.91 60.27 1.56 5
3 07/05/2022 02:59:42 -81.16, -4.20 119.51 07/05/2022 02:58:40 -81.16, -4.03 119.52 2.87 62
4 07/05/2022 03:49:08 81.17, 163.53 60.51 07/05/2022 03:49:20 81.17, 163.43 60.51 1.80 12
5 07/07/2022 22:33:56 -81.17, 62.30 119.23 07/07/2022 22:33:01 -81.17, 62.48 119.23 3.06 55
6 07/07/2022 23:23:22 81.17,-130.00 60.79 07/07/2022 23:23:41 81.17,-130.09 60.79 1.52 19
7 07/10/2022 18:08:12 -81.14, 128.38 118.95 07/10/2022 18:07:25 -81.15, 128.21 118.99 2.94 47
8 07/10/2022 18:57:37 81.17, -63.58 61.12 07/10/2022 18:58:03 81.17, -63.63 61.13 0.81 26
9 07/13/2022 13:42:26 -81.16,-164.87 118.53 07/13/2022 13:41:46 -81.16,-164.97 118.56 1.70 40



Historial Predications of SNOs between LANDSAT-8 and METOP-B
